FW8891 Weather Reports


Display with metric or nautical units.
time (UTC)temp
F
wind
direction
speed
MPH
gust
MPH
rain 1hr
in
rain 24hr
in
rain mn
in
humidity
%
barometer
mb
20260509174058 93 0 0.0 6.0 0.00 0.00 0.00 18 1012.0
20260509173600 93 83 2.0 5.0 0.00 0.00 0.00 19 1012.0
20260509173059 93 120 1.0 5.0 0.00 0.00 0.00 18 1011.9
20260509172559 94 150 2.0 4.0 0.00 0.00 0.00 18 1012.1
20260509172059 94 230 2.0 4.0 0.00 0.00 0.00 17 1012.1
20260509171559 93 138 0.0 3.0 0.00 0.00 0.00 18 1012.1
20260509171058 93 124 1.0 3.0 0.00 0.00 0.00 17 1012.1
20260509170558 92 0 0.0 3.0 0.00 0.00 0.00 17 1012.1
20260509170108 92 83 1.0 4.0 0.00 0.00 0.00 18 1012.2
20260509165600 91 154 0.0 4.0 0.00 0.00 0.00 18 1012.2
20260509165058 90 27 2.0 4.0 0.00 0.00 0.00 17 1012.2
20260509164600 91 49 0.0 4.0 0.00 0.00 0.00 18 1012.1
20260509164059 90 0 0.0 4.0 0.00 0.00 0.00 18 1012.1
20260509163558 89 57 3.0 4.0 0.00 0.00 0.00 18 1012.1
20260509163058 89 342 1.0 4.0 0.00 0.00 0.00 18 1012.1
20260509162558 89 84 1.0 4.0 0.00 0.00 0.00 18 1012.1
20260509162058 89 105 1.0 4.0 0.00 0.00 0.00 18 1012.1
20260509161602 88 0 1.0 6.0 0.00 0.00 0.00 19 1012.1
20260509161057 87 110 2.0 6.0 0.00 0.00 0.00 19 1012.1
20260509160558 87 68 3.0 6.0 0.00 0.00 0.00 19 1012.1
20260509160059 88 126 1.0 3.0 0.00 0.00 0.00 19 1012.1
20260509155558 87 77 1.0 3.0 0.00 0.00 0.00 19 1012.0
20260509155058 87 131 0.0 4.0 0.00 0.00 0.00 19 1012.0
20260509154602 86 89 2.0 4.0 0.00 0.00 0.00 20 1011.9
20260509154058 86 106 2.0 5.0 0.00 0.00 0.00 20 1012.0
20260509153558 85 124 1.0 5.0 0.00 0.00 0.00 20 1011.9
20260509153102 85 63 2.0 5.0 0.00 0.00 0.00 20 1011.9
20260509152559 85 57 1.0 4.0 0.00 0.00 0.00 20 1011.9
20260509152058 85 77 2.0 5.0 0.00 0.00 0.00 21 1011.9
20260509151603 84 120 2.0 5.0 0.00 0.00 0.00 21 1011.8
20260509151058 84 72 2.0 4.0 0.00 0.00 0.00 21 1011.9
20260509150558 84 80 1.0 4.0 0.00 0.00 0.00 21 1011.9
20260509150058 84 67 1.0 4.0 0.00 0.00 0.00 21 1011.9
20260509145558 83 83 2.0 4.0 0.00 0.00 0.00 22 1011.8
20260509145100 83 94 1.0 3.0 0.00 0.00 0.00 22 1011.8
20260509144558 83 0 0.0 2.0 0.00 0.00 0.00 22 1011.7
20260509144058 82 99 1.0 2.0 0.00 0.00 0.00 22 1011.8
20260509143600 82 58 1.0 3.0 0.00 0.00 0.00 21 1011.7
20260509143058 81 59 0.0 3.0 0.00 0.00 0.00 22 1011.7
20260509142558 80 61 2.0 3.0 0.00 0.00 0.00 23 1011.7
20260509142058 80 59 2.0 3.0 0.00 0.00 0.00 22 1011.6
20260509141600 79 60 1.0 2.0 0.00 0.00 0.00 22 1011.6
20260509141100 79 60 1.0 2.0 0.00 0.00 0.00 23 1011.6
20260509140558 79 0 0.0 0.0 0.00 0.00 0.00 23 1011.6
20260509140103 79 0 0.0 0.0 0.00 0.00 0.00 24 1011.6
20260509135559 78 0 0.0 0.0 0.00 0.00 0.00 25 1011.5
20260509135057 77 0 0.0 0.0 0.00 0.00 0.00 24 1011.5
20260509134627 77 0 0.0 0.0 0.00 0.00 0.00 23 1011.3
20260509134101 75 0 0.0 0.0 0.00 0.00 0.00 26 1011.2
20260509133558 74 0 0.0 0.0 0.00 0.00 0.00 25 1011.3
20260509133059 74 0 0.0 0.0 0.00 0.00 0.00 25 1011.2
20260509132559 73 0 0.0 0.0 0.00 0.00 0.00 26 1011.2
20260509132058 72 0 0.0 0.0 0.00 0.00 0.00 26 1011.1
20260509131600 72 0 0.0 1.0 0.00 0.00 0.00 26 1011.0
20260509131057 70 0 0.0 1.0 0.00 0.00 0.00 26 1011.0
20260509130558 70 0 0.0 1.0 0.00 0.00 0.00 26 1011.0
20260509130058 70 0 0.0 2.0 0.00 0.00 0.00 26 1010.9
20260509125600 70 0 0.0 2.0 0.00 0.00 0.00 26 1010.9
20260509125100 70 0 1.0 2.0 0.00 0.00 0.00 27 1010.8
20260509124558 70 347 1.0 2.0 0.00 0.00 0.00 26 1010.8
20260509124100 70 346 0.0 2.0 0.00 0.00 0.00 26 1010.7
20260509123604 70 346 1.0 4.0 0.00 0.00 0.00 26 1010.7
20260509123058 70 0 0.0 4.0 0.00 0.00 0.00 26 1010.4
20260509122559 69 348 2.0 4.0 0.00 0.00 0.00 26 1010.3
20260509122059 68 54 0.0 1.0 0.00 0.00 0.00 27 1010.3
20260509121600 68 0 0.0 1.0 0.00 0.00 0.00 27 1010.2
20260509121102 68 0 0.0 1.0 0.00 0.00 0.00 28 1010.1
20260509120600 68 0 0.0 1.0 0.00 0.00 0.00 27 1010.2
20260509120101 69 0 0.0 0.0 0.00 0.00 0.00 26 1010.1
20260509115559 69 0 0.0 0.0 0.00 0.00 0.00 26 1010.1
20260509115100 70 0 0.0 3.0 0.00 0.00 0.00 25 1010.1
20260509114601 70 0 0.0 3.0 0.00 0.00 0.00 24 1010.2
20260509114100 72 68 1.0 3.0 0.00 0.00 0.00 24 1010.2
20260509113600 72 288 1.0 3.0 0.00 0.00 0.00 24 1010.1
20260509113100 72 309 1.0 3.0 0.00 0.00 0.00 24 1010.1
20260509112600 72 279 1.0 3.0 0.00 0.00 0.00 24 1010.1
20260509112100 72 279 2.0 3.0 0.00 0.00 0.00 25 1010.1
20260509111558 72 271 1.0 3.0 0.00 0.00 0.00 24 1010.0
20260509111100 72 267 1.0 3.0 0.00 0.00 0.00 24 1010.1
20260509110602 72 188 1.0 2.0 0.00 0.00 0.00 24 1010.0
20260509110100 72 306 0.0 2.0 0.00 0.00 0.00 24 1009.9
20260509105601 72 307 0.0 3.0 0.00 0.00 0.00 24 1009.9
20260509105100 72 302 1.0 5.0 0.00 0.00 0.00 24 1009.8
20260509104558 72 307 3.0 5.0 0.00 0.00 0.00 23 1009.9
20260509104100 72 332 2.0 5.0 0.00 0.00 0.00 23 1009.8
20260509103559 72 290 2.0 3.0 0.00 0.00 0.00 25 1009.9
20260509103100 72 258 1.0 3.0 0.00 0.00 0.00 23 1009.8
20260509102600 72 256 1.0 3.0 0.00 0.00 0.00 24 1009.8
20260509102059 72 241 1.0 4.0 0.00 0.00 0.00 23 1009.7
20260509101605 72 266 1.0 4.0 0.00 0.00 0.00 23 1009.8
20260509101100 72 269 2.0 4.0 0.00 0.00 0.00 23 1009.8
20260509100600 72 259 1.0 2.0 0.00 0.00 0.00 24 1009.8
20260509100058 72 258 1.0 2.0 0.00 0.00 0.00 24 1009.8
20260509095600 72 266 0.0 2.0 0.00 0.00 0.00 23 1009.8
20260509095100 72 0 0.0 0.0 0.00 0.00 0.00 24 1009.8
20260509094600 72 0 0.0 0.0 0.00 0.00 0.00 23 1009.8
20260509094059 73 0 0.0 0.0 0.00 0.00 0.00 23 1009.8
20260509093559 74 0 0.0 3.0 0.00 0.00 0.00 22 1009.9
20260509093103 74 0 0.0 5.0 0.00 0.00 0.00 22 1009.8
20260509092602 74 260 2.0 5.0 0.00 0.00 0.00 22 1009.8
20260509092059 74 255 2.0 3.0 0.00 0.00 0.00 22 1009.9
20260509091559 74 261 1.0 2.0 0.00 0.00 0.00 22 1009.8
20260509091059 74 285 1.0 3.0 0.00 0.00 0.00 22 1009.7
20260509090559 75 297 1.0 3.0 0.00 0.00 0.00 21 1009.7
20260509090059 75 299 1.0 3.0 0.00 0.00 0.00 21 1009.8
20260509085600 75 266 1.0 3.0 0.00 0.00 0.00 21 1009.8
20260509085102 76 297 1.0 4.0 0.00 0.00 0.00 21 1009.9
20260509084601 76 289 2.0 4.0 0.00 0.00 0.00 21 1009.7
20260509084100 76 291 2.0 4.0 0.00 0.00 0.00 22 1009.7
20260509083559 76 270 2.0 4.0 0.00 0.00 0.00 21 1009.7
20260509083058 77 271 2.0 4.0 0.00 0.00 0.00 21 1009.7
20260509082559 77 271 2.0 4.0 0.00 0.00 0.00 20 1009.7
20260509082059 77 293 1.0 4.0 0.00 0.00 0.00 21 1009.7
20260509081559 78 304 1.0 3.0 0.00 0.00 0.00 20 1009.6
20260509081100 78 306 1.0 3.0 0.00 0.00 0.00 21 1009.6
20260509080559 78 295 2.0 4.0 0.00 0.00 0.00 20 1009.6
20260509080057 79 287 2.0 4.0 0.00 0.00 0.00 20 1009.6
20260509075559 79 292 2.0 4.0 0.00 0.00 0.00 20 1009.7
20260509075059 79 263 2.0 4.0 0.00 0.00 0.00 19 1009.7
20260509074607 80 290 2.0 4.0 0.00 0.00 0.00 19 1009.8
20260509074059 80 299 2.0 4.0 0.00 0.00 0.00 19 1009.7
20260509073559 81 309 2.0 4.0 0.00 0.00 0.00 19 1009.8
20260509073102 81 259 1.0 4.0 0.00 0.00 0.00 19 1009.7
20260509072559 81 265 2.0 6.0 0.00 0.00 0.00 18 1009.7
20260509072059 82 250 2.0 6.0 0.00 0.00 0.00 18 1009.7
20260509071608 82 295 2.0 5.0 0.00 0.00 0.00 18 1009.7
20260509071101 82 311 2.0 5.0 0.00 0.00 0.00 18 1009.6
20260509070600 82 304 2.0 5.0 0.00 0.00 0.00 18 1009.7
20260509070100 83 286 2.0 6.0 0.00 0.00 0.00 18 1009.7
20260509065601 83 307 2.0 6.0 0.00 0.00 0.00 17 1009.7
20260509065059 83 314 3.0 6.0 0.00 0.00 0.00 17 1009.7
20260509064618 83 271 3.0 5.0 0.00 0.00 0.00 18 1009.7
20260509064059 82 302 2.0 4.0 0.00 0.00 0.00 18 1009.7
20260509063559 82 232 2.0 4.0 0.00 0.00 0.00 18 1009.6
20260509063058 82 304 2.0 4.0 0.00 0.00 0.00 17 1009.6
20260509062559 82 285 2.0 5.0 0.00 0.00 0.00 18 1009.6
20260509062115 82 299 2.0 5.0 0.00 0.00 0.00 18 1009.5
20260509061624 82 295 2.0 5.0 0.00 0.00 0.00 18 1009.5
20260509061100 82 297 2.0 5.0 0.00 0.00 0.00 18 1009.5
20260509060559 82 277 3.0 9.0 0.00 0.00 0.00 18 1009.4
20260509060111 82 254 3.0 9.0 0.00 0.00 0.00 18 1009.5
20260509055601 82 231 3.0 5.0 0.00 0.00 0.00 17 1009.6
20260509055059 83 274 2.0 4.0 0.00 0.00 0.00 18 1009.3
20260509054559 83 270 2.0 4.0 0.00 0.00 0.00 17 1009.3
20260509054059 83 307 2.0 3.0 0.00 0.00 0.00 17 1009.3
20260509053559 82 288 0.0 2.0 0.00 0.00 0.00 18 1009.2
20260509053059 82 297 1.0 3.0 0.00 0.00 0.00 18 1009.3
20260509052559 83 283 1.0 3.0 0.00 0.00 0.00 19 1009.3
20260509052101 83 269 1.0 3.0 0.00 0.00 0.00 18 1009.4
20260509051600 83 283 2.0 4.0 0.00 0.00 0.00 17 1009.4
20260509051059 84 311 2.0 4.0 0.00 0.00 0.00 17 1009.4
20260509050602 84 295 2.0 4.0 0.00 0.00 0.00 17 1009.4
20260509050108 85 277 2.0 3.0 0.00 0.00 0.00 18 1009.4
20260509045559 85 291 1.0 3.0 0.00 0.00 0.00 17 1009.3
20260509045101 85 278 1.0 3.0 0.00 0.00 0.00 17 1009.3
20260509044600 86 257 1.0 3.0 0.00 0.00 0.00 17 1009.3
20260509044101 86 284 1.0 3.0 0.00 0.00 0.00 17 1009.3
20260509043600 86 243 1.0 3.0 0.00 0.00 0.00 16 1009.2
20260509043105 87 279 2.0 4.0 0.00 0.00 0.00 16 1009.2
20260509042559 87 281 2.0 5.0 0.00 0.00 0.00 16 1009.1
20260509042101 88 257 2.0 7.0 0.00 0.00 0.00 15 1009.0
20260509041601 88 264 2.0 7.0 0.00 0.00 0.00 15 1009.0
20260509041101 89 245 4.0 7.0 0.00 0.00 0.00 15 1009.0
20260509040559 89 299 3.0 6.0 0.00 0.00 0.00 15 1008.9
20260509040057 90 297 3.0 6.0 0.00 0.00 0.00 15 1008.8
20260509035600 90 250 3.0 6.0 0.00 0.00 0.00 14 1008.8
20260509035100 90 262 4.0 6.0 0.00 0.00 0.00 14 1008.7
20260509034558 91 241 4.0 7.0 0.00 0.00 0.00 14 1008.6
20260509034101 91 278 4.0 8.0 0.00 0.00 0.00 14 1008.6
20260509033559 91 264 4.0 8.0 0.00 0.00 0.00 14 1008.6
20260509033059 92 249 4.0 8.0 0.00 0.00 0.00 14 1008.5
20260509032559 92 231 4.0 8.0 0.00 0.00 0.00 14 1008.5
20260509032100 92 227 4.0 7.0 0.00 0.00 0.00 14 1008.4
20260509031601 92 251 3.0 8.0 0.00 0.00 0.00 14 1008.3
20260509031058 93 278 5.0 9.0 0.00 0.00 0.00 14 1008.3
20260509030558 93 264 4.0 9.0 0.00 0.00 0.00 14 1008.2
20260509030101 93 200 4.0 7.0 0.00 0.00 0.00 14 1008.2
20260509025601 93 249 4.0 7.0 0.00 0.00 0.00 14 1008.1
20260509025058 94 265 3.0 9.0 0.00 0.00 0.00 14 1008.1
20260509024558 94 264 4.0 10.0 0.00 0.00 0.00 14 1008.1
20260509024058 95 276 6.0 10.0 0.00 0.00 0.00 13 1008.0
20260509023600 95 205 5.0 10.0 0.00 0.00 0.00 13 1007.9
20260509023101 95 219 5.0 11.0 0.00 0.00 0.00 13 1007.8
20260509022558 95 227 6.0 11.0 0.00 0.00 0.00 13 1007.8
20260509022058 96 240 5.0 11.0 0.00 0.00 0.00 13 1007.7
20260509021601 96 231 4.0 11.0 0.00 0.00 0.00 13 1007.7
20260509021059 97 312 7.0 11.0 0.00 0.00 0.00 13 1007.6
20260509020557 97 271 6.0 11.0 0.00 0.00 0.00 13 1007.6
20260509020058 98 249 6.0 13.0 0.00 0.00 0.00 13 1007.5
20260509015601 98 196 7.0 13.0 0.00 0.00 0.00 13 1007.4
20260509015101 98 232 6.0 11.0 0.00 0.00 0.00 13 1007.4
20260509014559 99 276 5.0 9.0 0.00 0.00 0.00 13 1007.4
20260509014057 99 268 5.0 9.0 0.00 0.00 0.00 13 1007.3
20260509013558 99 262 4.0 11.0 0.00 0.00 0.00 13 1007.4
20260509013058 99 302 5.0 11.0 0.00 0.00 0.00 13 1007.4
20260509012558 100 271 4.0 14.0 0.00 0.00 0.00 13 1007.4
20260509012101 100 307 6.0 14.0 0.00 0.00 0.00 13 1007.4
20260509011601 100 250 5.0 11.0 0.00 0.00 0.00 13 1007.4
20260509011058 100 280 7.0 11.0 0.00 0.00 0.00 13 1007.4
20260509010557 100 345 4.0 7.0 0.00 0.00 0.00 13 1007.4
20260509010107 101 250 4.0 11.0 0.00 0.00 0.00 12 1007.4
20260509005558 100 240 7.0 13.0 0.00 0.00 0.00 13 1007.5
20260509005101 101 271 6.0 13.0 0.00 0.00 0.00 13 1007.5
20260509004623 101 218 6.0 10.0 0.00 0.00 0.00 13 1007.5
20260509004057 101 228 5.0 12.0 0.00 0.00 0.00 13 1007.5
20260509003604 101 269 6.0 12.0 0.00 0.00 0.00 13 1007.5
20260509003110 101 259 6.0 14.0 0.00 0.00 0.00 12 1007.6
20260509002558 101 83 5.0 14.0 0.00 0.00 0.00 13 1007.6
20260509002058 101 247 9.0 14.0 0.00 0.00 0.00 13 1007.6
20260509001603 102 226 7.0 13.0 0.00 0.00 0.00 13 1007.5
20260509001059 101 262 3.0 12.0 0.00 0.00 0.00 13 1007.6
20260509000559 101 199 6.0 12.0 0.00 0.00 0.00 13 1007.7
20260509000059 102 207 4.0 10.0 0.00 0.00 0.00 13 1007.8
20260508235558 102 165 5.0 9.0 0.00 0.00 0.00 13 1007.7
20260508235101 102 242 4.0 12.0 0.00 0.00 0.00 13 1007.8
20260508234605 101 221 6.0 12.0 0.00 0.00 0.00 13 1007.7
20260508234100 102 279 6.0 15.0 0.00 0.00 0.00 13 1007.9
20260508233559 102 198 9.0 15.0 0.00 0.00 0.00 13 1008.0
20260508233057 102 262 5.0 12.0 0.00 0.00 0.00 13 1008.0
20260508232558 101 146 5.0 12.0 0.00 0.00 0.00 14 1008.0
20260508232058 102 226 6.0 11.0 0.00 0.00 0.00 13 1008.1
20260508231558 102 250 4.0 11.0 0.00 0.00 0.00 14 1008.2
20260508231100 101 227 8.0 15.0 0.00 0.00 0.00 14 1008.2
20260508230600 102 255 6.0 15.0 0.00 0.00 0.00 14 1008.2
20260508230059 102 182 6.0 11.0 0.00 0.00 0.00 14 1008.3
20260508225558 102 252 5.0 9.0 0.00 0.00 0.00 14 1008.4
20260508225057 101 297 5.0 12.0 0.00 0.00 0.00 14 1008.5
20260508224600 101 200 4.0 12.0 0.00 0.00 0.00 14 1008.5
20260508224100 101 221 7.0 12.0 0.00 0.00 0.00 15 1008.6
20260508223558 102 248 2.0 10.0 0.00 0.00 0.00 15 1008.6
20260508223057 101 192 4.0 10.0 0.00 0.00 0.00 15 1008.8
20260508222557 101 271 4.0 13.0 0.00 0.00 0.00 15 1008.9
20260508222057 100 236 6.0 16.0 0.00 0.00 0.00 16 1009.0
20260508221558 100 238 7.0 16.0 0.00 0.00 0.00 15 1009.1
20260508221058 100 253 6.0 11.0 0.00 0.00 0.00 16 1009.1
20260508220559 100 236 6.0 11.0 0.00 0.00 0.00 15 1009.3
20260508220059 100 225 4.0 12.0 0.00 0.00 0.00 16 1009.4
20260508215558 100 248 7.0 14.0 0.00 0.00 0.00 16 1009.5
20260508215058 100 233 6.0 14.0 0.00 0.00 0.00 16 1009.5
20260508214607 100 267 5.0 11.0 0.00 0.00 0.00 15 1009.8
20260508214059 99 263 4.0 11.0 0.00 0.00 0.00 16 1009.9
20260508213558 99 269 7.0 11.0 0.00 0.00 0.00 15 1010.0
20260508213101 99 259 4.0 11.0 0.00 0.00 0.00 16 1010.0
20260508212558 99 256 4.0 11.0 0.00 0.00 0.00 16 1010.2
20260508212057 99 163 3.0 13.0 0.00 0.00 0.00 17 1010.3
20260508211558 98 212 7.0 13.0 0.00 0.00 0.00 17 1010.4
20260508211058 98 243 5.0 9.0 0.00 0.00 0.00 17 1010.6
20260508210602 98 297 5.0 9.0 0.00 0.00 0.00 17 1010.7
20260508210059 98 137 5.0 9.0 0.00 0.00 0.00 19 1010.8
20260508205558 97 155 4.0 15.0 0.00 0.00 0.00 19 1010.8
20260508205058 97 136 6.0 15.0 0.00 0.00 0.00 18 1010.8
20260508204602 98 222 5.0 9.0 0.00 0.00 0.00 18 1010.9
20260508204058 98 177 4.0 10.0 0.00 0.00 0.00 18 1011.0
20260508203601 98 203 6.0 10.0 0.00 0.00 0.00 19 1011.0
20260508202558 97 181 4.0 11.0 0.00 0.00 0.00 18 1011.2
20260508202101 97 83 4.0 8.0 0.00 0.00 0.00 18 1011.2
20260508201600 96 75 2.0 7.0 0.00 0.00 0.00 18 1011.2
20260508201059 97 127 3.0 7.0 0.00 0.00 0.00 17 1011.4
20260508200559 96 242 2.0 6.0 0.00 0.00 0.00 18 1011.5
20260508200101 96 155 2.0 9.0 0.00 0.00 0.00 18 1011.6
20260508195558 96 263 3.0 11.0 0.00 0.00 0.00 17 1011.7
20260508195103 96 170 6.0 11.0 0.00 0.00 0.00 18 1011.7
20260508194600 96 205 4.0 11.0 0.00 0.00 0.00 18 1011.7
20260508194059 95 176 3.0 8.0 0.00 0.00 0.00 19 1011.8
20260508193559 94 219 1.0 8.0 0.00 0.00 0.00 19 1011.9
20260508193119 94 178 4.0 8.0 0.00 0.00 0.00 18 1012.0
20260508192600 94 228 2.0 6.0 0.00 0.00 0.00 19 1012.0
20260508192103 93 218 2.0 7.0 0.00 0.00 0.00 19 1012.1
20260508191603 94 108 3.0 7.0 0.00 0.00 0.00 18 1012.2
20260508191101 93 251 3.0 7.0 0.00 0.00 0.00 18 1012.3
20260508190600 93 150 3.0 9.0 0.00 0.00 0.00 18 1012.3
20260508190113 92 213 5.0 9.0 0.00 0.00 0.00 18 1012.4
20260508185603 92 210 4.0 8.0 0.00 0.00 0.00 20 1012.4
20260508185101 92 95 2.0 6.0 0.00 0.00 0.00 20 1012.5
20260508184604 91 105 2.0 6.0 0.00 0.00 0.00 20 1012.5
20260508184100 91 141 3.0 6.0 0.00 0.00 0.00 18 1012.6
20260508183600 91 191 3.0 5.0 0.00 0.00 0.00 20 1012.7
20260508183115 90 0 2.0 6.0 0.00 0.00 0.00 20 1012.7
20260508182601 90 113 2.0 6.0 0.00 0.00 0.00 20 1012.9
20260508182100 91 110 2.0 6.0 0.00 0.00 0.00 19 1012.9
20260508181600 90 165 3.0 6.0 0.00 0.00 0.00 20 1013.0
20260508181104 90 170 2.0 6.0 0.00 0.00 0.00 21 1013.0
20260508180601 89 106 1.0 6.0 0.00 0.00 0.00 22 1013.0
20260508180110 89 106 4.0 7.0 0.00 0.00 0.00 23 1013.2
20260508175558 89 95 3.0 7.0 0.00 0.00 0.00 22 1013.3
20260508175058 89 117 2.0 7.0 0.00 0.00 0.00 23 1013.3
20260508174614 88 127 1.0 5.0 0.00 0.00 0.00 22 1013.4